Location: Atlantic Beach
(40.5890°N, 73.7290°W)
Time: 05:17:13
(UTC+00:00)

N. Korean satellite - Pass Details

Date: 25 January 2021
Orbit: 451 x 502 km, 97.2° (Epoch: 06 March)

Event Time Altitude Azimuth Distance (km) Brightness Sun altitude
Rises 09:27:48 0° 31° (NNE) 2,499 10.6 -30.8°
Reaches altitude 10° 09:30:30 10° 54° (NE) 1,608 9.8 -30.3°
Maximum altitude 09:32:40 16° 93° (E) 1,284 9.5 -29.9°
Drops below altitude 10° 09:34:50 10° 132° (SE) 1,588 9.7 -29.5°
Sets 09:37:27 0° 156° (SSE) 2,449 10.4 -29.0°
